[[{"header":{"parameterUnit":"m.s-1","parameterCategory":1,"la1":30.2991,"la2":30.254,"lo1":-89.0895,"lo2":-89.0444,"dy":0.0017,"dx":0.0017,"nx":28,"ny":28,"refTime":"2023-07-27T21:00:00:Z","depth":0,"parameterNumber":2,"parameterNumberName":"U-component_of_WINDS"},"data":[0,0,0,0,0,0,0,0,0,0,0,0,0,0,0,0,0,0,0,0,0,0,0,0,0,0,0,0,0,0,0,0,0,0,0,0,0,0,0,0,0,0,0,0,0,0,0,0,0,0,0,0,0,0,0,0,0,0,1.4134,1.4134,0,1.4136,1.4136,1.4136,1.4107,1.4106,1.4105,1.4104,1.4105,1.4106,1.4107,0,0,0,0,0,0,0,0,0,0,0,0,0,1.4102,1.4103,1.4134,1.4134,1.4134,1.4136,1.4136,1.4136,1.4107,1.4106,1.4105,1.4104,1.4105,1.4106,1.4107,0,0,0,0,0,0,0,0,0,0,0,0,0,1.4111,1.4103,1.4134,1.412,1.4118,1.4136,1.4136,1.4136,1.4107,1.4106,1.4105,1.4104,1.4105,1.4106,1.4107,1.4137,0,0,1.411,1.4111,0,0,0,0,0,0,0,0,1.4111,1.4112,1.4122,1.4121,1.4119,1.412,1.4125,1.4136,1.4107,1.4111,1.4104,1.4103,1.4111,1.4111,1.4114,1.4137,1.4137,1.411,1.4111,1.4111,1.4112,0,0,0,0,0,0,0,1.411,1.4112,1.4135,1.4122,1.412,1.4112,1.4112,1.4127,1.4118,1.4111,1.4109,1.411,1.411,1.4113,1.4114,1.4137,1.411,1.4111,1.4112,1.4112,1.4183,1.4184,0,0,0,0,0,0,1.4112,1.4112,1.4135,1.4135,1.4112,1.4114,1.4114,1.4121,1.4117,1.4116,1.4111,1.4108,1.4112,1.4113,1.4114,1.4147,1.4111,1.4112,1.4113,1.4181,1.4183,1.4184,0,0,0,0,0,0,1.4111,1.4114,1.4134,1.4123,1.4125,1.4116,1.4124,1.4122,1.4125,1.4117,1.4115,1.4116,1.4111,1.4112,1.4131,1.4147,1.4113,1.4114,1.418,1.4182,1.4184,1.4216,0,0,0,0,0,0,1.411,1.4114,1.4126,1.4123,1.4125,1.4153,1.4125,1.4122,1.4127,1.4124,1.4122,1.412,1.411,1.413,1.4132,1.4148,1.4115,1.4179,1.4181,1.4183,1.4214,1.4219,1.4223,0,0,0,0,0,1.4109,1.4136,1.4127,1.413,1.4141,1.4154,1.4155,1.4143,1.4129,1.414,1.4135,1.412,1.4145,1.4132,1.4135,1.4151,1.4177,1.418,1.4183,1.4211,1.4218,1.4223,0,0,0,0,0,0,1.4141,1.4135,1.4125,1.4152,1.4153,1.4149,1.4163,1.4151,1.4157,1.4153,1.4138,1.4138,1.4159,1.4157,1.4142,1.4179,1.4159,1.4162,1.4179,1.4185,1.419,1.4189,1.4116,0,0,0,0,0,1.4151,1.4163,1.4157,1.4181,1.4182,1.4172,1.4178,1.4169,1.4169,1.417,1.4166,1.4167,1.4174,1.418,1.4187,1.4213,1.4211,1.4226,1.4231,1.4235,1.4237,1.4249,1.4254,1.4193,1.4193,1.4193,0,0,1.4172,1.417,1.4179,1.4187,1.4187,1.4198,1.4173,1.4187,1.4194,1.4172,1.4189,1.4186,1.4186,1.4208,1.4217,1.4207,1.4254,1.4238,1.4242,1.4242,1.4252,1.4258,1.4263,1.4195,1.4194,1.4194,0,0,1.4216,1.4216,1.4235,1.4235,1.4236,1.4229,1.4233,1.423,1.4227,1.4244,1.4227,1.4235,1.425,1.425,1.4252,1.4293,1.4279,1.4296,1.4321,1.4332,1.4336,1.4341,1.4353,1.4358,1.4299,1.4299,1.4299,0,1.4241,1.4258,1.4246,1.426,1.4263,1.4243,1.4261,1.4262,1.4264,1.4266,1.4255,1.4271,1.427,1.429,1.43,1.4303,1.4306,1.4295,1.4337,1.4341,1.4345,1.4356,1.4361,1.43,1.43,1.43,1.43,0,1.4289,1.43,1.4315,1.4318,1.4323,1.4339,1.4328,1.4334,1.4324,1.4318,1.4334,1.4332,1.4337,1.4341,1.4332,1.436,1.4353,1.434,1.4318,1.4353,1.4363,1.4368,1.4303,1.4303,1.4302,1.4301,0,0,1.4353,1.4347,1.4353,1.4352,1.4351,1.4359,1.4373,1.4378,1.4382,1.4385,1.4395,1.4407,1.4393,1.4395,1.4386,1.4396,1.4426,1.4381,1.438,1.4387,1.4454,1.4462,1.4468,1.4417,1.4418,1.4419,1.4453,0,1.4393,1.4417,1.4406,1.4431,1.444,1.4421,1.4432,1.4432,1.4426,1.4433,1.4426,1.4434,1.4417,1.4418,1.4427,1.4421,1.4439,1.4418,1.4425,1.4425,1.4424,1.4474,1.4484,1.4517,1.4457,1.4458,1.4458,0,1.4444,1.4447,1.4473,1.4467,1.4471,1.4482,1.4484,1.4491,1.4489,1.4484,1.4486,1.4473,1.4485,1.4465,1.448,1.4466,1.4468,1.4465,1.4466,1.4465,1.4443,1.4472,1.4527,1.4531,1.4465,1.4465,1.4464,0,1.4485,1.4497,1.4513,1.4514,1.4508,1.4516,1.4514,1.4511,1.4513,1.4515,1.4517,1.452,1.4522,1.4524,1.4512,1.4499,1.4527,1.4507,1.4522,1.4522,1.4528,1.4528,1.4582,1.4533,1.4532,1.4532,1.4532,0,1.4531,1.4547,1.4531,1.4541,1.4557,1.4544,1.456,1.4556,1.4553,1.456,1.4544,1.4551,1.4536,1.4541,1.4532,1.4544,1.4546,1.4541,1.4538,1.4541,1.4542,1.4541,1.4538,1.4534,1.4533,1.4533,1.4533,0,1.458,1.457,1.4586,1.4579,1.4577,1.459,1.4583,1.4591,1.4584,1.4593,1.4595,1.4583,1.4588,1.4577,1.4581,1.4574,1.4591,1.4586,1.4592,1.459,1.4605,1.4603,1.4659,1.4665,1.4614,1.4614,1.4615,0,1.4609,1.4621,1.4614,1.4618,1.4617,1.4623,1.4626,1.4612,1.4615,1.4613,1.4621,1.4624,1.4626,1.4635,1.4627,1.4629,1.4622,1.4642,1.4622,1.4624,1.462,1.4618,1.4618,1.4645,1.4646,1.4646,1.4647,0,1.4661,1.4655,1.4659,1.4661,1.4665,1.4666,1.4666,1.467,1.4655,1.4659,1.4664,1.4665,1.4668,1.4671,1.4671,1.4668,1.4654,1.4653,1.4656,1.4659,1.4661,1.4658,1.4601,1.4651,1.4651,1.4651,1.465,1.465,1.4699,1.4708,1.4704,1.4709,1.4707,1.4707,1.4713,1.4706,1.471,1.4711,1.4703,1.4709,1.4705,1.4703,1.4701,1.4705,1.4696,1.4701,1.4702,1.4703,1.4704,1.4662,1.4705,1.4705,1.4705,1.4705,1.4704,0,1.4748,1.4745,1.4749,1.4749,1.4752,1.4739,1.4738,1.4741,1.4747,1.4744,1.4746,1.475,1.4753,1.4744,1.4745,1.4749,1.4743,1.475,1.4749,1.4748,1.4714,1.471,1.4755,1.4755,1.4755,1.4755,1.4755,1.4755,1.4774,1.4787,1.478,1.4791,1.4787,1.4793,1.4793,1.4792,1.4789,1.4795,1.4797,1.4791,1.4785,1.4785,1.4786,1.4783,1.4784,1.4792,1.4787,1.4755,1.475,1.4746,1.4742,1.4793,1.4793,1.482,1.4821,1.4821]},{"header":{"parameterUnit":"m.s-1","parameterCategory":1,"la1":30.2991,"la2":30.254,"lo1":-89.0895,"lo2":-89.0444,"dy":0.0017,"dx":0.0017,"nx":28,"ny":28,"refTime":"2023-07-27T21:00:00:Z","depth":0,"parameterNumber":3,"parameterNumberName":"V-component_of_WINDS"},"data":[0,0,0,0,0,0,0,0,0,0,0,0,0,0,0,0,0,0,0,0,0,0,0,0,0,0,0,0,0,0,0,0,0,0,0,0,0,0,0,0,0,0,0,0,0,0,0,0,0,0,0,0,0,0,0,0,0,0,2.3441,2.3442,0,2.3567,2.3569,2.357,2.3536,2.3534,2.3531,2.3529,2.3654,2.366,2.3665,0,0,0,0,0,0,0,0,0,0,0,0,0,2.3163,2.3168,2.3441,2.3442,2.3444,2.3567,2.3569,2.3571,2.3537,2.3534,2.3531,2.3528,2.3652,2.3659,2.3666,0,0,0,0,0,0,0,0,0,0,0,0,0,2.3286,2.317,2.3441,2.3442,2.3443,2.3567,2.3569,2.3571,2.3537,2.3534,2.353,2.3526,2.365,2.3658,2.3667,2.3795,0,0,2.3693,2.3696,0,0,0,0,0,0,0,0,2.3279,2.3296,2.344,2.3442,2.3444,2.3532,2.3517,2.3646,2.3538,2.3502,2.3529,2.3524,2.3616,2.3627,2.3659,2.3801,2.3806,2.3693,2.3699,2.3702,2.3705,0,0,0,0,0,0,0,2.327,2.329,2.3491,2.3442,2.3445,2.3434,2.3447,2.3541,2.3578,2.3504,2.3502,2.3518,2.3617,2.3651,2.3662,2.3808,2.3693,2.3701,2.3706,2.3709,2.4057,2.4061,0,0,0,0,0,0,2.3261,2.3284,2.3487,2.3495,2.3351,2.3442,2.3457,2.3508,2.3577,2.3584,2.3521,2.3516,2.3638,2.3652,2.3666,2.3819,2.3702,2.371,2.3715,2.4053,2.4058,2.4063,0,0,0,0,0,0,2.3255,2.328,2.3482,2.3389,2.3413,2.3451,2.3508,2.3512,2.3547,2.359,2.3596,2.355,2.3636,2.3654,2.3763,2.3823,2.3714,2.3722,2.4048,2.4055,2.406,2.4127,0,0,0,0,0,0,2.3248,2.3278,2.3329,2.339,2.3419,2.3579,2.3512,2.3517,2.3562,2.3557,2.3619,2.3625,2.3634,2.375,2.3771,2.3833,2.3728,2.4043,2.4051,2.4058,2.412,2.4135,2.4148,0,0,0,0,0,2.3238,2.3343,2.3332,2.3357,2.3484,2.3582,2.3598,2.3608,2.3567,2.3618,2.3644,2.3623,2.3813,2.3762,2.3785,2.385,2.4039,2.4049,2.4058,2.4114,2.4132,2.4148,0,0,0,0,0,0,2.3288,2.3351,2.334,2.3468,2.352,2.3576,2.3641,2.3628,2.3691,2.3683,2.3691,2.3705,2.3816,2.3843,2.3785,2.3976,2.392,2.3934,2.3954,2.3972,2.3986,2.3977,2.3736,0,0,0,0,0,2.3314,2.339,2.344,2.3548,2.3575,2.3603,2.3647,2.3649,2.3703,2.3724,2.376,2.3811,2.3881,2.3928,2.3996,2.4123,2.4135,2.4179,2.4193,2.4204,2.4217,2.4283,2.4303,2.4093,2.4093,2.4093,0,0,2.3368,2.3412,2.346,2.356,2.36,2.3677,2.3622,2.3707,2.3763,2.3737,2.3842,2.3869,2.3926,2.4044,2.4097,2.407,2.4277,2.4216,2.4225,2.4231,2.4295,2.4315,2.4332,2.4099,2.4098,2.4097,0,0,2.3506,2.3548,2.3642,2.3683,2.3745,2.3763,2.3785,2.3843,2.386,2.3965,2.3946,2.4012,2.4134,2.4175,2.4212,2.4361,2.4343,2.4383,2.4457,2.4521,2.4538,2.4552,2.4604,2.4623,2.4395,2.4395,2.4395,0,2.3566,2.3683,2.3691,2.3777,2.3819,2.3799,2.3892,2.3931,2.4012,2.4041,2.401,2.4161,2.4198,2.4324,2.436,2.4391,2.4415,2.4377,2.4535,2.455,2.4563,2.4613,2.4632,2.4399,2.4399,2.4398,2.4398,0,2.3752,2.3833,2.39,2.3979,2.4029,2.4118,2.4137,2.4187,2.4183,2.4203,2.4308,2.4352,2.4427,2.4457,2.4455,2.4581,2.4562,2.4533,2.4477,2.4588,2.4634,2.4653,2.4406,2.4404,2.4403,2.4402,0,0,2.3928,2.4008,2.4032,2.4066,2.4132,2.4193,2.4279,2.4353,2.4394,2.4449,2.452,2.4622,2.4595,2.4636,2.4638,2.4695,2.4808,2.4658,2.4659,2.4684,2.4947,2.4969,2.4991,2.4796,2.4799,2.4802,2.4942,0,2.4071,2.4225,2.4233,2.4371,2.4444,2.4424,2.4498,2.4545,2.4564,2.4627,2.4648,2.472,2.4679,2.4703,2.4758,2.4783,2.4861,2.4772,2.486,2.4863,2.4846,2.5016,2.504,2.517,2.496,2.4963,2.4966,0,2.426,2.4321,2.4467,2.4519,2.455,2.4617,2.4683,2.4744,2.4795,2.4805,2.485,2.4843,2.4927,2.4867,2.4983,2.4922,2.4958,2.4974,2.498,2.4988,2.4921,2.5028,2.5212,2.5231,2.4995,2.4992,2.499,0,2.4372,2.4491,2.4593,2.4622,2.4686,2.4733,2.4761,2.4808,2.4851,2.4908,2.4935,2.5001,2.5037,2.5087,2.5097,2.5052,2.5211,2.5153,2.522,2.522,2.5256,2.5254,2.5447,2.5279,2.5279,2.5278,2.5278,0,2.4532,2.4622,2.4643,2.4706,2.4805,2.4811,2.4908,2.4932,2.4974,2.5039,2.5024,2.5085,2.5094,2.5156,2.5163,2.5256,2.5273,2.5282,2.5283,2.5283,2.5282,2.5307,2.5298,2.5283,2.5282,2.5281,2.528,0,2.4675,2.4694,2.4803,2.4853,2.4867,2.4938,2.498,2.5038,2.5055,2.5137,2.5156,2.5182,2.5254,2.5268,2.5353,2.5358,2.5469,2.5461,2.5452,2.5451,2.5518,2.5511,2.5735,2.5763,2.5576,2.5578,2.558,0,2.4776,2.4844,2.4901,2.4944,2.4975,2.5044,2.5087,2.5094,2.514,2.52,2.5251,2.5322,2.5379,2.5494,2.5519,2.5583,2.5576,2.565,2.5586,2.5583,2.5576,2.5572,2.5578,2.5662,2.5664,2.5666,2.5667,0,2.4952,2.4957,2.5021,2.5087,2.5139,2.5191,2.5241,2.5276,2.5289,2.534,2.5414,2.5458,2.5544,2.5614,2.5677,2.5703,2.5687,2.5687,2.5706,2.5707,2.57,2.5704,2.5486,2.5682,2.5681,2.568,2.5679,2.5678,2.5077,2.5135,2.5184,2.5254,2.5292,2.5338,2.5395,2.5418,2.548,2.5551,2.5551,2.5631,2.5676,2.5759,2.5789,2.585,2.5827,2.5855,2.5862,2.5868,2.5874,2.5689,2.5862,2.5861,2.5861,2.5861,2.586,0,2.5251,2.5281,2.5345,2.5415,2.5469,2.5449,2.5502,2.5549,2.562,2.5664,2.572,2.5803,2.5869,2.5898,2.5963,2.6006,2.6,2.6022,2.6019,2.6025,2.5892,2.5869,2.6026,2.6026,2.6026,2.6026,2.6026,2.6026,2.5349,2.5446,2.5456,2.5571,2.5599,2.5679,2.571,2.5751,2.5786,2.588,2.5935,2.5954,2.5991,2.6057,2.6116,2.6123,2.6147,2.6173,2.6176,2.6051,2.6035,2.6019,2.5997,2.6178,2.6178,2.6304,2.6305,2.6306]}]]